Location: Unspecified
(0.0000°N, 0.0000°E)
Time: 19:05:56
(UTC+00:00)

Vanguard 2 Rocket - Pass Details

Date: 27 November 2019
Orbit: 554 x 3326 km, 32.9° (Epoch: 09 December)

Event Time Altitude Azimuth Distance (km) Brightness Sun altitude
Rises 15:03:49 0° 224° (SW) 7,314 12.4 37.7°
Reaches altitude 10° 15:10:05 10° 214° (SW) 6,189 12.1 36.3°
Maximum altitude 15:25:44 31° 159° (SSE) 3,909 10.4 32.8°
Drops below altitude 10° 15:36:44 10° 102° (ESE) 4,387 10.0 30.3°
Sets 15:40:10 0° 91° (E) 5,006 10.2 29.5°
